Location: Unspecified
(0.0000°N, 0.0000°E)
Time: 19:13:23
(UTC+00:00)

Transit 2A Rocket - All Passes

Search period start: 18 April 2019 00:00
Search period end: 28 April 2019 00:00
Orbit: 584 x 919 km, 66.7° (Epoch: 17 April)

Date Brightness Start Highest point End Pass type
(mag) Time Alt. Az. Time Alt. Az. Time Alt. Az.
18 Apr - 00:35:19 10° SSW 00:40:28 83° WNW 00:46:09 10° NNE night (unlit)
18 Apr - 11:26:08 10° NNE 11:29:22 17° ENE 11:32:26 10° ESE daylight
18 Apr - 13:07:29 10° NW 13:11:44 27° WSW 13:15:41 10° SSW daylight
18 Apr - 23:53:08 10° S 23:58:04 46° ESE 00:03:26 10° NE night (unlit)
19 Apr - 01:38:43 10° W 01:40:37 12° WNW 01:42:34 10° NW night (unlit)
19 Apr - 12:24:18 10° NNW 12:29:22 60° WSW 12:34:00 10° S daylight
19 Apr - 23:11:43 10° SSE 23:15:42 22° ESE 23:19:56 10° ENE night (unlit)
20 Apr - 00:53:45 10° WSW 00:58:02 25° WNW 01:02:35 10° NNW night (unlit)
20 Apr - 11:41:50 10° N 11:46:56 60° ENE 11:51:35 10° SSE daylight
21 Apr - 00:10:26 10° SW 00:15:30 51° WNW 00:21:01 10° N night (unlit)
21 Apr - 11:00:07 10° NNE 11:04:26 27° ENE 11:08:27 10° SE daylight
21 Apr - 12:43:42 10° WNW 12:46:39 16° WSW 12:49:29 10° SW daylight
21 Apr - 23:27:51 10° SSW 23:33:03 77° ESE 23:38:44 10° NNE night (unlit)
22 Apr - 10:19:46 10° NE 10:21:51 12° ENE 10:23:52 10° E daylight
22 Apr - 11:59:43 10° NW 12:04:19 34° WSW 12:08:32 10° S daylight
22 Apr - 22:45:54 10° S 22:50:39 36° ESE 22:55:48 10° NE night (unlit)
23 Apr - 00:29:59 10° WSW 00:33:07 16° WNW 00:36:24 10° NNW night (unlit)
23 Apr - 11:16:48 10° NNW 11:21:56 80° WSW 11:26:35 10° SSE daylight
23 Apr - 22:04:51 10° SSE 22:08:17 18° ESE 22:11:54 10° ENE night (unlit)
23 Apr - 23:45:53 10° SW 23:50:33 32° WNW 23:55:35 10° N night (unlit)
24 Apr - 10:34:35 10° N 10:39:28 45° ENE 10:43:57 10° SE daylight
24 Apr - 23:02:50 10° SSW 23:08:02 66° WNW 23:13:45 10° NNE night (unlit)
25 Apr - 09:53:10 10° NNE 09:56:56 21° ENE 10:00:29 10° ESE daylight
25 Apr - 11:35:35 10° WNW 11:39:14 20° WSW 11:42:40 10° SSW daylight
25 Apr - 22:20:28 10° S 22:25:37 60° ESE 22:31:15 10° NNE night (unlit)
26 Apr - 10:52:04 10° NW 10:56:53 45° WSW 11:01:17 10° S daylight
26 Apr - 21:38:46 10° SSE 21:43:14 29° ESE 21:48:03 10° NE night (unlit)
26 Apr - 23:21:44 10° WSW 23:25:38 20° WNW 23:29:45 10° NNW night (unlit)
27 Apr - 10:09:24 10° NNW 10:14:28 78° ENE 10:19:06 10° SSE daylight
27 Apr - 20:58:16 10° SE 21:00:53 14° ESE 21:03:33 10° E night (unlit)
27 Apr - 22:38:06 10° SW 22:43:05 41° WNW 22:48:29 10° N night (unlit)
